ARIANE 1 DEB, 25098

Orbit data source: Space-Track

ARIANE 1 DEB, 25098 is space debris in HEO originally from a launch on Mon, 24 Dec 1979 UTC launched from the French Guiana (FRGUI). Debris objects in space refer to the collection of defunct objects orbiting the Earth. Examples of debris include non-operational satellites, rocket bodies, and fragments generated from explosions, collisions, or faulty payload assembly.

Loading next visibility...
Identifier
25098, 1979-104D
Orbit
HEO
Country
Flag of FRFR
Related business
Manufacturer
ESA
Mission
Spacecraft
Bus & Motor
Unknown
Mass
Unknown
Launch date (UTC)
1979-12-24 (46 years ago)
Launch vehicle
Unknown
Launch site
French Guiana (FRGUI)
Object type
Payload
Rocket body
Debris
Shape & HBR
Unknown shape, 0.2 m
Radar Cross Section
Medium (>0.1 m² and <1 m²)

Expand to show TLE details & history
Last TLE update: 20 hours ago

TLE from 20 hours ago
0 ARIANE 1 DEB
1 25098U 79104D   26048.28331715  .00000689  00000-0  19679-2 0  9992
2 25098  17.5625  63.2663 5342567 125.4477 296.8275  4.79247023437911
Epoch: 2026-02-17T06:47Z
TLE epoch observation values (Epoch: 2026-02-17T06:47:58.601Z)
Latitude
-0.00004°
Longitude
174.04282°
Altitude
8,985.852 km
Speed
5.007 km/s
True Right ascension
04h 13m 12s
True Declination
0° 00' 00"
Sunlit
Object was in daylight at epoch
Visualization orbit readout
Latitude
Unknown
Longitude
Unknown
Altitude
Unknown
Speed
Unknown
Apparent Right ascension
Unknown
Apparent Declination
Unknown
Sunlit
N/A
Visualization observer readout
Local Sidereal Time
05:40:40
Azimuth
Unknown
Elevation
Unknown
Doppler factor
Unknown
Orbital elements
Apogee altitude
16,427.962 km
Perigee altitude
544.947 km
Semi-major axis
14,864.591 km
Eccentricity
0.53426
Inclination
17.5625°
RAAN
63.2663°
Arg. of periapsis
125.4477°
True anomaly
234.61624°
Mean anomaly
296.8275°
Eccentric anomaly
266.2813°
Mean motion
1.19761 °/min
Orbital period
300.6 mins
BSTAR
0.0019679
Loading maneuver chart data...
Computing Atmospheric mass density...
Loading historical data...
Loading historical data...
Loading historical data...
Loading historical data...
Loading historical data...
Loading historical data...
Loading historical data...

Documentation

Showing up to 5 results
|